La Palma > ESTACION METEOROLÓGICA NOT - Roque de los Muchachos

DATOS ACTUALES Online

Ultima actulizacion 1 h 0 minutos

5.9 ºC

Temperatura

59

Humedad (%)

770.6

Presión (mb)

0

Precipitación (mm)

31.6 NW

Viento (Km/h)

DATOS DIARIOS

Temperatura últimas 24 horas (ºC)

Humedad últimas 24 horas (%)

Presión atmosférica últimas 24 horas (mb)

Precipitaciones últimas 23 horas (mm)

Viento últimas 24 horas (Km/h)

Hora Temperatura (°C) ºC Precipitación (mm) mm Presión (mb) mb Humedad (%) % Viento (Km/h) km/h
29 - 00:00 10 0 772 17.5 10 W
29 - 01:00 9.3 0 771 20.5 10.4 W
29 - 02:00 9.3 0 771 24.2 16.2 W
29 - 03:00 9.8 0 771 12 22.5 W
29 - 04:00 9.4 0 770 12.8 20.4 W
29 - 05:00 9 0 770 15.8 21.1 W
29 - 06:00 9.8 0 770 16.7 22.3 W
29 - 07:00 11.6 0 771 16.1 21 W
29 - 08:00 11.7 0 771 15.8 9.9 W
29 - 09:00 12.8 0 771 15.5 0.1 W
29 - 10:00 14.7 0 771 12.7 16.3 W
29 - 11:00 17.7 0 771 15.1 2.5 SO
29 - 12:00 16.1 0 771 14 9.6 N
29 - 13:00 17.7 0 770 21.8 1.2 O
29 - 14:00 14.8 0 770 19.3 12.3 W
29 - 15:00 15.2 0 770 14.5 0.1 NW
29 - 16:00 16.5 0 770 8.1 13.5 W
29 - 17:00 13.3 0 770 10.1 14.8 NW
29 - 18:00 11 0 770 14.3 27.1 NW
29 - 19:00 9.1 0 770 14.7 33 NW
29 - 20:00 6.5 0 770 26 34.3 NW
29 - 21:00 5.1 0 770 56.4 40.3 NW
29 - 22:00 5.6 0 770 56.6 34.6 NW
29 - 23:00 5.9 0 771 58.7 31.6 NW
30 - 00:00
Apalmet utiliza cookies propias y de terceros para mejorar la usabilidad y la experiencia web. Política de cookies.